METEOR 2-5 DEB, 40215

Orbit data source: Space-Track

METEOR 2-5 DEB, 40215 is space debris in LEO originally from a launch on Wed, 31 Oct 1979 UTC launched from the Plesetsk Missile And Space Complex (PKMTR). Debris objects in space refer to the collection of defunct objects orbiting the Earth. Examples of debris include non-operational satellites, rocket bodies, and fragments generated from explosions, collisions, or faulty payload assembly.

Loading next visibility...
Identifier
40215, 1979-095CN
Orbit
LEO
Country
Flag of CISCIS
Related business
Manufacturer
Unknown
Mission
Spacecraft
Bus & Motor
Unknown
Mass
Unknown
Launch date (UTC)
1979-10-31 (47 years ago)
Launch vehicle
Unknown
Launch site
Plesetsk Missile And Space Complex (PKMTR)
Object type
Payload
Rocket body
Debris
Shape & HBR
Unknown shape, 0.1 m
Radar Cross Section
Small (<0.1 m²)

Expand to show TLE details & history
Last TLE update: 2 weeks ago

TLE from 2 weeks ago
0 METEOR 2-5 DEB
1 40215U 79095CN  26159.30957402  .00005168  00000-0  17130-2 0  9999
2 40215  81.1931 161.9292 0011213 121.9218 238.3060 14.37717903 26416
Epoch: 2026-06-08T07:25Z
TLE epoch observation values (Epoch: 2026-06-08T07:25:47.195Z)
Latitude
-0.00003°
Longitude
153.78428°
Altitude
773.2 km
Speed
7.465 km/s
True Right ascension
10h 47m 43s
True Declination
0° 00' 00"
Sunlit
Object was in daylight at epoch
Visualization orbit readout
Latitude
Unknown
Longitude
Unknown
Altitude
Unknown
Speed
Unknown
Apparent Right ascension
Unknown
Apparent Declination
Unknown
Sunlit
N/A
Visualization observer readout
Local Sidereal Time
23:27:12
Azimuth
Unknown
Elevation
Unknown
Doppler factor
Unknown
Orbital elements
Apogee altitude
771.196 km
Perigee altitude
755.181 km
Semi-major axis
7,141.325 km
Eccentricity
0.00112
Inclination
81.1931°
RAAN
161.9292°
Arg. of periapsis
121.9218°
True anomaly
238.19675°
Mean anomaly
238.306°
Eccentric anomaly
238.25137°
Mean motion
3.59646 °/min
Orbital period
100.1 mins
BSTAR
0.001713
Loading maneuver chart data...
Computing Atmospheric mass density...

Documentation

Showing up to 5 results
|